Theta_e
300 288 287 286 286 288 292 296 296 296 296 296 296 295 294 293 294 298 299 302 306 302 301 302 303 302 304 305 307 308 308 305 305 308 309 310 310 310 309 311 312 312 314 317 318 319 321 323 326 327 326 326 328 328 329 329 330 332 332 331 332 333 333 332 331 331 330 328 327 327 326 326 327 327 327 328 328 328 328 329 330 330 330 329 328 328
299 288 287 290 290 289 290 295 297 296 295 294 293 293 293 295 292 296 298 303 307 303 300 303 302 302 303 305 307 309 308 306 305 306 308 308 308 307 306 307 309 312 314 317 318 319 320 321 325 326 325 324 326 326 327 327 328 330 331 331 332 333 332 333 332 332 331 330 329 327 327 326 326 326 325 326 327 328 328 328 329 329 330 329 328 327
290 287 290 293 294 293 293 292 295 296 294 294 292 291 291 292 295 297 298 301 305 303 299 301 300 301 303 305 306 306 307 308 308 306 307 307 307 307 306 306 307 308 310 315 315 316 318 320 321 321 321 324 326 327 326 327 328 328 329 330 331 332 332 332 332 332 331 331 330 329 327 327 326 328 328 328 327 328 328 328 329 329 330 330 329 328
286 290 293 295 295 293 292 293 292 293 296 294 292 290 288 293 292 289 296 298 303 301 298 300 298 299 303 305 305 307 307 308 310 309 308 309 308 307 307 307 307 307 309 312 312 313 316 317 318 317 318 319 320 321 324 326 327 328 328 328 329 330 332 331 332 330 332 331 331 330 329 329 328 326 327 328 328 328 327 327 329 329 329 330 329 329
289 294 298 296 294 293 290 291 291 291 290 294 294 292 291 292 293 293 292 297 299 302 302 298 295 296 299 299 300 305 308 308 309 310 310 310 310 311 311 310 310 309 309 311 312 312 314 316 316 317 318 318 318 318 318 321 325 327 327 328 329 329 330 331 330 330 331 330 329 329 328 327 327 326 326 326 326 327 327 327 327 328 329 329 329 329
290 295 301 295 293 293 291 289 290 291 289 291 294 295 294 294 293 294 295 293 291 291 299 297 288 288 295 297 298 301 302 304 307 307 308 309 310 310 310 310 311 311 311 311 311 312 313 314 313 316 318 318 318 318 318 319 321 324 325 327 328 329 329 330 330 330 330 329 329 328 326 325 325 324 324 324 325 325 326 326 328 328 328 329 329 329
292 297 297 294 293 292 291 290 291 292 288 288 290 296 296 295 294 292 292 291 285 284 293 298 287 283 291 293 296 298 299 300 303 305 307 308 309 310 310 311 311 311 311 311 311 312 313 313 313 312 316 318 319 319 320 320 319 321 323 326 328 328 328 329 329 330 328 329 329 329 328 327 326 325 326 328 328 328 328 328 327 328 328 328 328 328
295 295 295 294 293 291 290 287 291 291 288 286 294 295 296 294 293 293 292 291 288 294 295 295 293 286 285 290 295 297 297 298 300 302 304 306 307 308 310 311 311 312 312 312 312 313 314 314 314 314 314 315 319 321 321 321 321 320 320 323 327 327 326 328 329 329 329 328 328 328 328 327 327 326 326 327 328 329 328 328 328 328 328 328 328 328
294 292 293 292 292 290 289 291 293 293 289 289 294 296 294 294 293 293 292 290 290 288 284 289 294 286 285 291 295 294 293 295 296 298 301 304 306 307 309 311 311 312 313 313 313 314 314 315 315 315 315 316 317 318 320 321 321 321 320 320 323 326 325 326 327 328 328 327 327 328 328 327 327 328 327 326 326 327 327 327 328 328 329 329 329 329
296 295 295 295 292 288 293 295 294 293 288 292 297 299 298 296 294 293 290 288 288 285 282 287 291 284 285 290 292 294 292 291 293 296 298 301 304 305 307 310 311 312 312 313 314 314 315 315 316 316 316 316 317 318 319 320 322 322 321 320 321 323 325 325 327 327 328 327 326 326 327 327 326 326 326 325 324 325 326 326 327 328 328 328 328 328
294 299 298 290 289 294 295 296 295 295 294 297 297 294 292 292 290 292 290 287 284 281 283 289 290 288 281 287 290 290 291 294 294 295 298 300 302 304 307 308 309 310 310 311 311 312 312 314 315 315 315 315 315 315 317 318 321 322 321 320 319 321 323 324 326 326 327 327 326 325 325 326 325 325 325 324 323 324 324 325 326 327 328 328 328 329
292 294 293 296 297 295 297 294 297 298 296 294 291 289 289 287 288 286 284 283 280 278 285 289 289 289 280 284 290 294 296 296 296 295 296 297 299 301 305 308 309 309 309 309 310 310 310 310 311 312 313 314 314 315 316 316 319 322 321 319 318 318 319 321 323 326 326 327 326 325 324 324 325 324 324 323 323 324 324 324 324 325 326 326 327 328
286 288 293 295 299 296 290 290 292 295 296 293 290 289 282 278 281 277 280 276 277 278 285 289 290 285 284 288 290 293 295 296 296 297 298 298 298 301 304 306 307 308 307 308 310 310 311 311 311 310 311 312 313 314 315 317 319 319 319 318 317 316 317 318 319 322 324 325 325 325 323 323 324 324 324 324 323 323 323 323 322 322 323 324 324 325
283 290 291 292 295 296 295 286 287 286 290 289 287 285 281 276 275 272 276 277 279 283 287 285 289 284 288 291 295 294 295 295 295 296 297 298 298 299 302 302 305 306 307 308 309 310 310 311 311 311 311 312 313 313 315 315 318 318 318 317 316 316 317 316 317 318 320 323 324 325 324 323 322 323 324 324 323 323 323 323 323 323 322 322 323 324
275 277 285 290 285 295 293 291 291 290 290 289 291 288 283 281 275 271 274 272 273 277 282 287 281 276 282 284 294 295 297 298 298 298 297 300 300 299 300 301 303 305 305 307 307 308 309 310 311 311 312 312 312 313 313 313 314 317 317 317 315 315 315 316 316 317 318 321 322 323 324 324 323 322 322 323 324 323 322 322 322 322 322 322 323 323
280 280 287 293 293 295 291 295 296 293 290 291 292 291 286 282 284 277 278 276 276 276 276 279 279 283 286 292 293 295 294 296 298 297 297 297 298 300 300 301 302 304 305 305 305 306 307 308 310 311 312 312 312 312 312 313 314 315 316 316 316 315 315 316 315 316 318 319 321 322 322 323 323 322 322 321 322 322 321 321 321 321 321 322 321 322
280 277 288 292 295 294 293 295 294 295 281 288 289 283 286 293 288 281 282 281 281 278 275 281 283 286 290 292 293 293 292 294 295 295 296 297 297 298 300 301 301 303 302 303 305 307 308 309 310 311 311 312 313 313 313 314 314 315 315 314 314 314 314 314 315 316 317 317 318 319 320 321 321 321 320 319 319 319 320 320 320 320 320 320 321 321
277 279 288 289 288 294 297 296 295 295 295 290 283 287 294 295 290 284 277 279 278 274 275 282 278 281 282 278 291 291 291 292 293 294 295 296 297 298 299 299 301 302 303 304 306 308 309 309 310 311 311 312 313 313 313 313 314 314 314 313 313 313 313 313 314 315 316 316 316 315 317 317 318 318 318 317 317 317 317 316 318 317 318 318 320 321
286 277 282 287 291 293 296 295 292 295 297 291 288 297 286 280 279 283 282 275 274 274 275 279 280 281 283 283 287 287 289 290 292 294 295 295 296 297 298 298 300 302 303 304 305 306 307 306 307 309 311 312 312 312 313 312 313 312 312 313 314 313 313 313 314 313 315 315 315 315 314 314 314 314 314 315 316 315 315 315 315 315 316 316 316 318
285 277 280 288 288 291 289 285 281 287 293 289 294 289 290 288 283 281 281 282 282 275 275 275 279 277 285 285 289 289 291 291 292 292 294 296 297 298 299 299 300 302 303 304 304 304 305 305 305 307 311 310 310 310 310 310 310 310 311 312 311 311 311 311 312 312 312 312 314 314 312 312 312 312 313 313 312 313 313 313 313 313 313 315 316 316
282 285 275 282 286 287 282 286 284 288 285 285 284 285 287 284 288 287 286 283 279 276 277 276 276 279 286 290 290 290 292 293 293 293 294 296 297 299 299 300 301 302 303 303 304 304 304 304 304 305 307 308 308 307 307 308 308 309 309 310 309 309 309 310 310 310 311 312 312 311 311 311 311 311 311 311 311 311 311 312 311 312 313 312 313 313
281 280 276 280 279 281 283 291 290 291 290 288 287 284 287 285 282 278 276 286 284 280 276 277 274 283 288 293 293 292 294 294 295 294 295 296 298 299 299 300 301 302 302 303 304 304 304 303 304 305 305 305 305 306 306 307 307 307 307 309 308 308 308 308 309 310 311 311 312 311 311 311 310 311 310 310 310 310 310 310 311 310 310 310 312 312
286 283 280 277 279 281 285 289 292 289 286 284 288 286 289 288 286 282 276 280 282 283 283 282 278 280 290 291 291 292 292 292 293 295 295 296 298 299 299 300 301 302 303 304 304 304 305 304 304 304 305 304 305 305 305 304 306 307 307 307 308 308 308 309 310 311 311 310 310 310 309 309 308 308 308 308 308 307 308 309 308 309 309 309 309 310
288 280 277 278 282 284 286 286 289 290 287 285 286 288 286 284 286 285 283 285 282 282 280 279 277 281 291 290 292 293 292 292 294 295 295 297 299 299 300 301 302 302 302 304 304 304 304 304 303 302 302 304 304 304 305 306 306 306 306 307 307 307 307 308 309 309 309 309 308 307 306 306 306 306 306 305 306 305 305 307 307 306 306 307 308 309
278 281 279 274 274 276 278 281 281 282 282 282 284 288 289 288 287 287 286 286 281 282 282 279 274 281 290 292 292 291 292 291 293 294 294 295 296 297 299 302 302 303 303 302 302 303 302 302 302 303 303 304 304 304 305 306 306 306 306 306 307 306 307 307 307 307 307 306 305 303 303 303 303 303 303 303 304 303 304 303 303 304 305 305 306 307
281 279 276 270 268 268 268 269 272 275 279 283 283 285 288 287 286 284 279 282 277 282 284 280 279 287 290 291 292 293 292 291 292 294 293 295 295 296 296 302 303 302 302 301 301 299 301 302 301 300 300 301 303 304 304 304 304 305 305 306 305 305 304 305 304 304 304 302 301 301 299 300 299 300 301 302 301 301 301 301 301 301 302 303 304 303
279 281 278 277 274 272 274 277 280 281 279 277 280 283 284 287 288 287 285 282 278 282 281 283 284 285 287 289 289 290 291 292 292 292 293 293 294 295 296 299 300 300 300 300 299 298 298 299 300 300 300 302 302 300 301 302 303 303 303 303 303 303 303 303 302 301 300 298 297 297 296 297 298 299 298 298 298 297 298 298 297 297 298 297 298 299
280 277 280 280 279 279 280 280 282 283 279 280 281 280 283 284 285 285 282 279 286 282 277 285 287 284 285 289 290 290 291 291 293 293 292 292 293 294 295 296 298 299 298 298 297 298 299 299 300 300 300 301 302 301 301 302 303 303 302 301 300 300 300 303 300 298 297 297 295 295 296 296 294 295 296 296 297 297 296 295 295 295 295 295 296 296
278 276 280 279 279 281 282 282 283 283 282 281 281 281 281 282 282 281 283 285 286 280 278 286 286 284 287 289 291 292 293 292 292 292 292 293 294 294 295 296 297 298 298 298 298 299 298 298 300 300 300 300 299 300 300 300 300 298 298 298 299 299 300 299 298 296 296 294 295 295 294 294 294 296 296 295 296 295 295 295 294 295 295 294 294 297
279 276 279 280 279 280 281 281 282 281 280 281 280 280 281 281 281 281 282 284 284 284 285 286 286 286 289 290 292 293 294 294 294 295 295 294 293 292 295 297 298 298 298 298 298 299 299 299 300 300 299 298 298 299 299 299 300 299 300 300 299 300 298 298 296 296 295 295 294 293 293 294 295 295 295 295 294 293 292 292 293 293 293 293 292 291
281 277 281 276 276 277 280 281 281 280 280 278 280 281 281 281 280 281 281 282 283 282 284 284 284 284 289 292 292 294 295 295 294 294 294 294 293 292 291 296 298 298 298 298 298 299 299 299 299 298 296 297 298 299 300 301 301 301 300 299 299 299 298 297 296 294 294 295 293 293 293 293 293 292 292 291 291 291 291 292 291 291 291 291 291 292
281 278 278 276 274 274 277 278 279 280 280 279 279 279 280 279 277 279 278 281 281 280 283 283 282 283 289 292 293 293 293 292 292 293 294 295 294 293 293 294 296 297 297 298 298 298 298 298 298 298 298 299 299 299 300 300 300 299 300 299 299 299 297 296 296 296 295 294 293 293 295 293 292 291 291 290 290 290 289 289 289 289 288 288 290 293
280 277 275 275 273 273 277 278 277 277 276 274 276 279 281 281 282 282 283 283 283 283 280 279 281 288 290 292 290 292 292 292 293 294 294 295 295 295 295 295 296 297 298 298 297 297 298 299 299 300 300 300 300 301 301 301 300 299 300 299 299 298 297 296 295 295 294 293 294 293 294 291 291 291 289 289 289 289 289 289 289 288 288 288 290 293
281 279 277 278 272 273 276 276 276 273 268 269 282 285 284 281 282 280 280 282 284 285 283 285 286 289 291 291 290 290 291 292 293 295 296 296 296 296 296 297 297 298 298 297 297 298 299 299 300 301 301 301 301 301 301 300 300 300 299 299 296 296 295 295 293 293 293 292 293 292 291 290 289 289 288 288 289 289 289 289 288 289 289 290 292 293
279 280 277 279 275 273 276 275 271 267 269 281 284 285 285 285 285 283 284 285 286 287 287 286 287 288 290 291 292 293 294 295 296 296 296 297 297 297 297 297 297 297 297 297 297 298 299 300 301 300 299 297 299 299 300 300 299 297 295 295 295 294 294 292 292 292 292 292 291 290 289 289 288 288 287 287 287 288 288 287 288 288 287 290 292 292
279 278 278 277 277 277 273 272 265 268 279 284 285 286 287 286 285 284 282 285 287 287 287 286 287 289 290 291 293 294 294 295 296 296 296 297 297 297 296 297 297 297 297 298 299 299 299 298 298 298 297 296 297 299 300 300 297 296 295 292 294 291 291 291 291 290 289 289 289 289 288 288 287 286 286 286 286 287 287 287 285 287 289 289 290 292
281 280 279 275 279 270 272 271 271 277 276 278 279 281 282 281 282 281 277 281 287 288 288 287 288 289 291 292 293 294 294 294 292 294 296 296 297 298 298 298 298 299 299 300 299 299 299 298 297 297 295 295 296 296 299 296 294 294 291 290 289 289 288 288 289 288 288 289 288 288 288 287 287 286 285 286 286 285 286 285 285 287 289 289 289 290
283 278 280 275 274 276 272 270 270 269 267 273 280 284 286 287 287 287 283 281 287 288 289 288 288 289 290 291 292 292 293 290 288 290 295 296 297 298 298 299 299 299 299 298 298 298 298 297 297 296 296 296 296 296 294 292 292 291 291 289 288 288 287 288 289 288 288 288 287 286 286 286 285 285 285 284 286 285 283 285 287 287 288 287 288 288
282 282 280 276 275 275 273 269 269 267 271 278 279 283 285 287 287 286 281 277 286 288 289 289 288 289 290 290 290 291 288 285 286 291 295 296 295 295 295 296 297 298 298 297 297 296 296 296 296 296 295 295 295 291 290 291 291 291 290 289 288 288 288 288 288 288 288 287 285 285 285 284 284 284 284 285 284 284 284 285 286 286 287 287 288 289
277 278 278 274 273 274 273 270 268 271 271 277 281 283 285 286 286 281 272 274 286 289 290 290 289 289 290 290 290 289 287 284 286 291 295 296 294 292 294 295 295 295 295 295 294 295 296 295 293 292 292 293 293 289 289 289 290 289 289 288 288 288 288 288 288 287 286 285 285 284 284 283 283 283 283 283 283 284 286 286 286 286 286 287 288 287
276 277 277 273 274 275 275 272 273 274 280 282 282 284 285 287 282 274 269 278 285 287 289 290 290 290 291 289 289 287 289 291 293 295 295 294 291 292 294 295 296 295 295 294 294 292 293 293 294 295 294 293 290 289 289 289 289 289 288 288 288 288 288 287 286 286 286 285 285 284 284 283 283 284 283 283 284 284 285 286 286 286 286 286 286 283
276 277 277 277 274 273 273 271 272 275 281 284 284 285 286 281 272 271 282 287 287 287 288 288 289 290 290 290 290 291 292 294 294 294 294 294 294 292 293 294 294 294 295 295 294 293 293 292 290 289 287 287 288 288 288 289 289 288 288 287 288 287 286 286 286 286 285 285 285 284 284 284 283 283 284 283 284 283 283 284 285 284 283 281 283 284
276 273 273 273 276 276 274 271 271 268 279 286 285 283 283 277 278 285 285 285 286 287 288 288 289 290 290 290 291 292 292 292 292 292 293 294 294 291 291 292 293 293 293 292 290 289 292 290 290 289 288 286 286 287 287 288 288 287 287 287 287 286 286 286 286 285 285 285 285 284 284 283 283 284 284 283 283 283 283 283 282 281 283 284 283 284
281 274 274 276 278 272 272 270 271 278 282 286 285 279 283 285 287 287 286 285 287 287 287 288 288 289 290 290 290 291 291 291 291 292 292 292 292 292 290 292 292 292 292 293 294 292 290 291 289 287 285 285 285 286 287 288 287 287 287 286 285 285 285 285 285 285 285 284 283 283 283 283 282 282 281 283 283 283 283 283 283 284 285 284 284 283
282 278 279 275 280 276 274 277 281 283 284 286 286 286 287 288 288 287 287 288 288 287 286 286 287 288 288 289 289 290 290 290 291 292 291 292 292 291 289 291 292 291 291 291 291 289 290 291 289 287 284 283 284 284 285 286 287 286 286 285 285 285 285 285 284 284 283 283 283 283 282 282 282 282 281 282 283 284 283 282 282 284 281 283 283 282
281 281 282 281 279 284 285 285 286 285 285 286 288 288 288 287 288 287 287 287 287 290 289 287 287 287 287 286 286 286 287 288 288 289 289 290 291 290 289 289 290 290 290 288 286 286 287 286 286 285 283 282 282 283 283 284 285 286 285 285 285 285 285 284 283 283 282 282 282 282 282 282 281 281 281 282 282 282 281 283 283 283 283 283 282 282
278 279 280 278 281 279 274 283 283 284 285 286 287 288 289 288 289 289 289 289 289 289 287 286 288 288 288 287 286 285 285 286 286 287 288 288 288 289 288 289 289 289 288 288 288 287 286 285 285 284 283 282 280 281 281 281 282 283 284 284 284 284 284 283 283 283 282 282 282 282 282 282 282 282 282 282 282 282 282 282 282 282 282 281 281 281
274 282 276 277 277 275 276 280 282 284 286 287 287 286 286 288 289 288 288 288 288 288 287 287 287 286 286 286 286 286 286 286 285 286 287 287 288 289 288 289 288 287 286 287 286 286 285 286 285 283 282 282 281 281 281 281 281 282 283 282 283 283 283 282 282 282 282 282 282 282 282 283 284 283 282 281 281 281 281 280 281 281 279 277 278 280
277 279 271 275 274 277 280 281 281 282 283 285 286 287 287 288 288 288 288 288 289 288 289 289 287 287 286 287 287 286 285 286 286 286 287 288 288 288 288 288 287 287 286 285 284 285 285 284 284 283 282 281 281 280 280 279 279 280 280 281 282 283 282 282 282 282 281 281 282 282 282 282 282 281 281 281 280 280 280 279 280 281 281 280 278 277
275 271 275 274 270 271 272 275 278 274 276 281 283 286 287 289 288 288 288 288 288 288 288 288 289 288 286 286 286 286 286 287 287 287 287 288 288 288 286 286 285 284 283 283 284 283 283 282 282 281 281 280 280 280 279 277 277 276 277 279 281 282 282 282 281 280 280 281 281 281 281 281 281 280 281 281 280 280 280 282 283 282 280 279 282 283
273 273 273 270 270 270 275 277 279 280 280 282 283 285 287 288 286 287 288 288 289 289 288 287 288 289 288 287 286 286 286 287 287 287 287 288 287 287 287 286 285 284 283 283 282 281 282 281 281 280 279 278 278 279 279 277 277 276 276 277 278 280 281 281 281 280 280 281 280 281 281 280 280 280 280 280 280 279 279 278 280 283 283 282 281 282
Wind_Speed
7 8 10 11 11 16 18 18 17 14 9 11 13 12 13 11 11 8 8 5 8 8 13 15 15 13 14 14 13 12 9 8 9 10 9 10 9 9 8 9 9 8 8 6 8 9 10 12 11 10 8 7 7 7 9 9 9 11 10 10 11 10 9 9 9 10 10 10 8 7 9 10 9 9 8 8 7 7 6 6 7 8 8 8 10 10
10 9 11 12 15 14 16 14 14 13 14 14 10 9 10 12 11 9 8 7 8 9 8 13 13 16 14 13 13 14 13 14 9 8 10 10 9 8 8 9 9 9 5 6 5 5 5 7 9 8 7 7 9 7 8 10 11 10 10 11 10 10 10 10 11 10 10 10 11 11 11 9 8 8 9 9 8 8 6 7 7 7 7 8 9 10
11 13 13 15 14 12 12 15 16 15 16 16 10 7 10 10 6 7 10 7 7 10 7 7 14 13 13 13 13 12 15 14 12 10 10 11 11 11 10 8 8 6 6 6 6 5 5 6 6 7 7 8 10 10 10 10 9 10 11 10 10 10 11 11 11 10 11 10 9 9 7 9 6 7 7 7 7 7 8 8 9 9 8 9 8 9
11 12 15 14 12 13 13 14 17 15 14 10 10 10 10 5 8 7 8 7 5 7 4 7 10 8 10 13 14 13 12 12 13 13 12 11 13 12 11 7 8 8 6 7 6 6 7 7 6 6 6 8 7 7 8 9 11 10 10 10 11 10 11 10 11 11 11 10 9 8 6 7 7 6 6 7 7 7 8 10 10 8 9 10 9 8
7 5 13 11 13 14 15 13 12 13 13 12 11 10 8 7 6 4 2 7 4 8 4 0 4 7 7 9 9 12 14 11 12 15 15 12 9 10 10 9 9 10 9 7 6 6 7 8 9 10 10 8 8 8 8 10 10 9 12 12 12 11 12 11 11 12 9 8 7 7 4 5 5 3 6 6 8 9 9 8 9 12 10 9 9 9
12 14 3 11 13 15 13 12 13 10 12 11 13 12 8 6 7 6 6 3 5 8 8 8 5 12 7 11 13 7 6 15 14 14 14 14 13 9 9 13 11 9 8 9 9 9 9 9 8 9 10 9 9 10 10 10 11 10 10 11 11 10 10 11 11 12 9 9 9 8 8 8 8 8 8 10 12 11 11 13 11 9 10 11 10 9
8 9 10 10 14 13 12 11 12 12 10 10 11 13 13 11 7 8 6 5 6 8 3 7 10 9 6 11 11 9 10 12 9 15 16 14 13 13 11 8 9 10 8 6 6 8 8 8 8 7 9 10 10 11 10 10 9 9 10 11 12 11 10 10 10 12 10 9 9 11 12 11 11 11 10 10 9 10 10 8 9 10 10 11 12 11
3 8 9 12 13 10 12 13 11 12 10 11 4 9 13 14 13 9 7 8 5 1 4 4 8 12 10 6 9 16 17 19 19 15 14 14 13 12 11 9 6 7 8 8 8 8 8 9 10 12 11 10 11 10 9 9 9 10 10 9 11 10 10 10 10 12 12 12 11 11 10 10 10 11 12 12 10 8 8 9 11 9 10 11 11 11
11 9 12 12 14 8 11 10 9 13 11 6 6 5 6 13 14 11 7 5 4 2 6 7 3 5 10 7 8 8 16 19 19 19 18 16 16 15 14 13 12 12 12 11 11 12 12 12 11 10 10 9 9 8 9 8 9 10 10 10 10 11 11 10 11 11 12 12 12 11 10 10 10 12 11 8 7 8 8 9 9 9 10 10 11 12
1 5 8 13 11 10 9 11 9 10 12 8 1 4 3 3 7 9 6 5 5 5 11 8 7 8 12 7 8 10 13 12 14 18 17 16 15 15 15 14 14 13 12 12 14 13 13 13 12 11 9 8 8 8 8 8 8 9 9 10 11 11 10 9 10 11 12 12 10 10 10 12 11 10 9 7 7 8 8 10 9 9 9 9 10 12
10 2 5 1 6 4 5 11 9 11 10 2 4 3 3 1 2 2 1 2 3 13 12 9 9 9 13 10 12 11 11 12 10 7 10 14 15 15 15 16 14 13 12 12 12 12 11 10 11 9 11 10 8 7 8 8 9 9 9 10 11 11 9 9 10 11 12 12 11 11 12 13 13 13 11 8 7 7 7 9 10 9 9 9 10 10
8 6 2 2 6 1 3 3 8 8 7 6 2 6 4 3 3 3 2 1 8 12 12 14 12 13 16 12 10 11 7 12 14 16 15 12 12 14 13 14 15 15 14 11 11 10 10 7 7 7 8 9 9 8 8 7 6 7 8 8 9 8 8 8 9 11 11 11 11 10 11 13 13 12 9 10 10 9 9 8 8 8 7 8 8 8
10 10 4 7 4 8 2 3 7 7 5 8 7 6 11 5 3 7 3 7 8 7 6 11 13 12 21 17 2 6 9 9 8 9 12 14 13 11 11 13 13 13 11 10 9 9 9 10 9 8 8 7 7 8 8 8 7 6 6 8 9 8 8 9 8 10 11 10 11 12 12 12 10 9 9 9 9 7 8 7 7 6 7 7 7 8
5 6 10 10 4 5 5 3 3 5 5 9 12 10 10 10 10 10 9 5 6 9 8 4 9 14 11 15 15 14 8 5 4 3 5 12 12 11 10 9 10 10 9 9 8 8 8 9 9 9 8 8 8 7 7 6 7 6 6 7 8 9 8 8 8 9 9 11 11 12 11 10 8 8 9 8 7 7 7 7 7 7 7 7 8 8
6 8 8 8 6 9 11 11 9 4 7 13 8 12 11 10 7 11 9 13 14 10 7 11 5 4 9 7 9 19 19 17 15 11 4 1 3 4 7 7 7 7 6 7 8 9 10 11 10 10 10 9 8 8 7 6 6 6 6 7 8 7 7 8 9 9 11 11 11 10 9 8 7 8 7 7 7 6 6 6 6 6 6 7 8 8
5 8 3 17 9 14 13 13 13 6 7 6 7 5 9 13 4 12 5 6 7 7 5 5 7 1 13 2 3 3 7 15 20 19 8 5 4 2 5 7 7 7 7 6 6 7 9 9 8 7 7 7 7 7 6 6 6 6 7 8 9 10 9 9 9 9 10 10 9 8 8 8 8 7 6 6 6 6 6 6 6 7 7 7 6 6
4 9 1 3 9 10 12 12 11 11 7 3 2 10 8 4 12 6 7 4 1 6 10 4 5 12 11 15 13 8 4 7 12 13 13 11 8 5 6 7 7 7 6 6 8 9 10 8 7 8 8 7 8 7 8 8 8 8 8 7 7 8 8 8 9 9 9 8 7 8 8 7 6 7 7 7 5 6 5 6 6 7 7 5 5 6
3 6 3 1 8 8 11 13 15 18 9 2 8 9 7 5 5 4 8 5 9 9 6 10 15 11 11 11 10 18 16 10 6 5 9 10 9 9 7 7 7 7 8 10 11 12 12 10 10 9 8 8 9 9 9 9 7 8 8 8 9 8 8 7 8 8 8 8 7 6 7 6 7 6 5 5 5 4 4 5 5 4 6 5 5 5
5 11 14 7 5 5 5 5 10 13 16 14 8 3 10 8 11 3 2 11 8 11 7 11 10 14 12 12 1 11 19 18 20 13 6 8 11 12 10 8 7 8 9 10 11 11 10 9 8 7 8 7 8 8 8 8 8 6 6 8 9 9 9 8 6 6 6 7 5 5 6 6 5 5 4 4 5 5 5 6 6 5 5 4 4 5
1 5 7 4 7 2 3 2 7 8 5 5 2 3 3 2 6 9 9 3 6 11 7 12 11 15 8 7 8 7 10 15 17 16 17 15 14 14 12 10 9 10 11 11 11 10 9 9 8 8 8 8 8 7 7 8 7 8 8 8 6 5 5 5 6 6 7 6 6 5 5 5 5 5 5 5 5 6 5 5 5 5 5 6 5 5
6 4 11 1 1 1 4 5 7 8 10 8 1 3 3 3 1 3 4 10 7 5 10 8 13 8 10 7 10 10 14 10 10 14 13 12 11 13 14 13 12 13 13 11 11 10 10 9 8 8 7 8 7 7 7 7 8 8 7 7 6 7 5 5 5 5 5 6 6 6 6 5 5 5 4 5 4 5 5 4 4 4 5 4 5 4
4 4 10 8 4 5 4 3 8 10 9 10 11 10 12 11 9 8 7 0 7 7 8 6 14 6 3 5 11 14 13 10 10 9 12 13 13 14 13 13 14 14 11 11 12 10 9 6 4 3 2 4 5 5 5 5 5 5 6 6 6 6 6 6 5 5 5 5 6 7 7 6 5 5 4 4 4 4 5 4 4 4 4 4 5 4
3 3 5 10 7 9 9 8 3 2 1 3 3 7 9 9 7 9 11 7 3 9 4 11 8 9 3 3 3 4 2 4 8 11 9 10 13 11 9 11 11 10 10 10 8 6 5 5 5 5 5 5 6 6 5 5 5 5 5 5 5 7 6 7 7 6 7 7 7 7 6 5 5 4 4 4 4 4 4 4 4 3 4 4 4 4
6 1 4 8 7 9 8 1 5 3 1 4 3 3 5 8 12 13 10 7 9 6 11 9 14 7 5 2 2 2 2 2 4 1 8 7 8 9 11 11 9 7 5 5 5 5 6 5 5 5 5 6 5 6 7 7 6 6 6 6 6 6 6 5 6 7 7 6 6 6 5 5 4 4 4 5 4 5 5 4 4 3 3 4 4 4
3 1 3 7 6 4 4 4 2 2 1 3 5 6 8 8 11 10 8 5 9 9 7 7 15 7 6 4 3 2 3 4 3 5 3 4 6 7 9 9 8 8 7 6 7 7 6 5 7 9 8 8 7 6 7 8 7 7 6 6 7 6 6 6 5 6 6 6 6 5 5 5 5 5 5 5 4 5 5 4 4 3 4 4 4 4
1 5 1 2 6 7 5 3 3 3 5 7 5 11 10 11 13 9 10 8 11 5 12 10 7 5 5 4 12 10 5 2 2 2 2 1 2 4 5 8 10 9 8 8 7 5 7 7 4 3 4 4 6 7 7 7 7 6 6 7 6 7 6 6 6 6 6 5 6 5 5 5 5 5 5 6 5 5 5 4 4 4 3 3 4 4
2 1 3 5 6 10 11 12 16 13 7 6 10 8 12 14 15 15 11 12 15 9 13 12 11 9 9 11 7 5 5 9 7 3 4 2 2 1 2 5 6 7 8 9 8 6 2 2 6 6 5 6 5 5 6 6 6 6 7 7 6 6 7 7 6 5 6 5 5 5 5 5 6 6 5 5 5 3 2 1 2 3 4 4 4 4
1 4 8 10 12 14 13 13 13 11 13 14 13 12 10 9 11 15 14 16 6 8 19 8 12 13 16 14 12 6 6 6 8 7 5 5 5 6 5 4 6 5 5 4 4 6 9 9 7 6 6 6 7 6 5 5 6 7 7 7 6 5 5 6 6 5 5 5 5 5 5 5 5 5 5 4 2 1 1 2 3 3 3 2 3 3
3 7 9 5 13 13 12 12 11 10 9 11 15 15 13 13 11 11 15 16 13 13 14 9 10 10 11 11 10 11 10 11 6 4 4 4 5 7 8 8 7 7 7 8 9 9 8 8 8 9 9 9 7 6 6 5 5 4 4 5 5 5 6 6 6 5 5 5 5 5 5 4 4 3 3 2 1 2 2 3 2 1 1 1 2 2
2 6 11 8 13 12 12 13 12 13 11 13 14 15 14 12 13 14 13 14 15 18 15 17 18 21 13 12 15 16 14 13 14 11 8 8 7 6 9 9 9 9 9 9 9 9 10 11 10 10 10 8 7 6 5 5 5 5 6 5 5 6 5 6 5 5 5 5 5 5 4 4 3 3 2 1 2 3 3 3 1 1 1 1 1 2
4 6 7 2 4 10 11 11 12 13 14 15 15 15 14 12 13 12 11 14 12 13 13 17 23 22 13 16 19 18 17 17 18 20 18 12 8 6 5 8 10 10 10 11 10 11 10 9 8 6 5 5 6 6 7 7 7 6 6 5 6 6 6 6 6 5 6 6 5 5 4 4 4 4 4 4 3 3 4 3 2 2 1 1 2 1
6 6 1 1 6 11 10 10 12 11 12 13 14 13 12 12 11 9 11 8 11 12 13 14 15 14 12 14 16 18 17 19 21 21 18 13 7 6 6 5 9 9 9 10 10 8 7 7 8 8 8 8 8 8 8 8 7 6 7 6 7 7 6 6 6 7 6 5 5 5 5 5 4 4 5 4 4 4 4 4 3 3 3 3 3 3
3 2 2 3 7 10 13 9 10 9 7 10 11 12 15 15 14 13 12 11 13 11 14 14 14 10 15 14 14 17 18 19 18 17 15 15 13 9 8 8 9 11 12 11 7 7 9 10 10 11 12 11 11 10 10 10 8 8 8 8 8 7 7 8 7 7 6 6 6 6 5 5 5 5 4 4 4 4 3 2 2 3 3 3 2 2
7 7 7 3 5 10 13 10 5 6 9 10 8 11 12 15 14 15 15 15 16 12 12 11 13 13 14 14 17 17 17 18 16 15 14 14 14 15 15 14 13 11 10 8 7 9 10 9 9 11 14 14 12 12 9 9 10 10 10 9 7 8 7 8 6 6 6 6 6 5 5 5 4 4 4 3 3 3 2 2 2 1 2 2 1 1
7 7 8 5 5 9 11 8 6 11 11 10 13 11 10 11 11 14 15 15 14 14 15 15 15 15 17 19 19 17 17 18 18 18 16 15 16 16 17 17 15 10 9 9 10 10 11 13 14 13 9 6 6 6 7 8 9 7 6 8 9 8 8 7 7 6 6 6 5 5 5 5 4 4 4 3 3 2 2 3 1 2 3 3 3 2
10 10 7 6 6 6 7 6 9 12 5 4 6 8 9 12 15 15 16 17 17 17 17 17 17 17 18 19 20 18 16 17 16 15 15 15 15 16 18 17 14 10 11 12 15 15 14 12 11 9 8 6 7 7 9 11 8 8 8 7 9 8 7 7 6 6 5 5 5 6 5 5 5 4 4 4 3 3 3 3 3 3 3 2 1 3
14 9 7 10 7 11 8 10 13 8 13 9 9 6 6 9 7 11 13 13 14 14 14 14 15 15 14 15 17 17 17 15 17 18 15 16 17 18 19 18 15 14 15 15 13 13 13 11 9 9 7 7 8 9 11 8 8 8 7 7 5 5 5 5 5 5 6 6 6 6 6 5 5 4 4 4 4 4 4 4 4 4 3 2 1 0
14 14 10 11 7 9 11 11 8 8 13 11 10 14 15 15 15 12 10 14 9 9 8 11 14 16 16 16 16 17 15 15 17 16 18 18 17 17 16 13 13 13 12 11 11 11 11 10 9 8 9 9 9 10 7 9 9 8 8 7 6 6 5 5 7 6 6 6 5 5 5 5 5 5 4 4 4 4 4 4 3 4 3 3 2 2
14 14 12 11 11 9 11 11 10 12 12 8 12 13 15 13 13 12 11 15 8 13 13 14 15 15 15 15 16 15 13 14 15 15 17 16 10 8 10 11 12 13 12 12 12 12 11 10 11 11 9 9 10 6 6 9 10 10 9 8 8 7 8 8 7 7 8 6 5 5 4 4 4 4 4 4 4 4 4 4 4 4 2 2 2 4
11 10 11 13 14 13 12 11 11 6 9 9 11 12 13 15 7 4 13 11 7 16 17 16 16 16 15 15 14 14 13 13 13 14 15 16 8 6 9 11 13 12 11 10 9 11 11 10 7 7 7 8 9 7 8 8 8 8 9 8 7 8 9 9 8 6 5 5 6 5 4 4 4 4 4 4 4 4 4 4 5 5 4 4 4 5
6 6 9 15 13 17 20 13 9 9 9 12 16 17 14 8 4 11 14 8 11 14 14 13 13 13 12 13 10 11 11 14 15 16 15 11 6 7 10 11 11 11 11 10 10 9 7 7 10 12 12 9 8 8 8 9 9 8 8 9 9 11 10 7 6 7 6 6 6 5 5 4 4 4 4 4 5 5 5 5 5 5 5 5 5 4
6 5 6 10 12 14 15 15 14 12 9 10 14 19 17 7 9 13 11 11 12 12 9 5 6 7 9 12 12 12 13 14 13 12 14 16 15 9 10 11 11 11 11 12 13 10 8 7 6 5 4 6 10 9 9 9 10 8 8 8 10 9 6 8 8 7 7 7 6 5 5 5 4 4 4 4 5 5 5 5 5 5 5 4 5 6
5 4 6 10 7 8 8 11 10 11 12 20 19 13 5 6 9 11 10 10 8 12 14 13 10 11 10 12 12 13 15 15 14 12 13 15 15 9 9 9 10 10 10 7 5 6 8 7 8 9 9 7 8 8 8 10 9 8 8 10 9 7 8 8 8 8 7 7 7 6 6 5 5 5 4 4 5 6 6 5 5 4 5 6 5 6
7 8 6 7 7 7 8 6 8 12 11 6 5 9 8 12 11 11 7 11 11 9 9 9 8 9 10 11 12 12 12 12 14 13 12 12 12 9 6 9 9 9 8 10 12 11 10 10 8 7 6 6 6 7 8 10 10 9 10 9 7 8 8 8 8 7 8 7 7 7 6 6 5 5 4 5 6 5 6 5 5 5 6 6 6 6
6 10 6 9 1 5 5 6 7 9 10 11 8 9 12 11 7 7 10 11 12 11 6 6 6 6 6 8 10 12 13 11 13 13 11 12 13 10 7 10 11 11 11 11 10 9 9 12 12 10 7 5 6 5 6 6 10 9 10 7 8 9 9 8 8 8 8 7 7 7 6 5 5 4 4 4 6 6 6 5 5 6 4 5 5 6
14 14 9 8 12 12 14 16 17 16 18 21 18 9 9 13 14 9 7 8 6 10 7 6 6 6 8 6 5 6 8 8 8 9 9 10 11 8 7 7 8 8 9 7 4 6 7 6 7 9 9 5 5 5 5 5 7 11 8 7 8 8 8 8 9 8 8 7 7 7 6 7 5 4 4 4 4 4 4 6 6 6 5 6 6 5
7 6 5 7 9 12 10 4 6 9 8 10 12 14 15 9 12 13 11 10 11 12 9 5 5 6 8 8 8 9 11 11 10 10 10 9 11 9 7 9 11 12 12 12 11 8 7 8 9 10 10 9 5 5 4 5 4 5 7 8 7 7 8 9 9 9 8 8 7 6 7 8 7 6 5 5 5 5 5 5 6 6 6 5 6 5
9 6 17 14 15 13 14 18 18 15 13 14 14 16 16 15 12 7 8 10 12 14 11 10 6 7 6 9 10 10 13 10 9 11 11 10 11 10 9 10 11 8 8 7 8 9 8 10 12 11 10 9 7 5 5 5 5 6 7 6 7 8 9 9 9 10 9 9 8 7 7 7 8 8 6 5 5 6 5 5 4 6 5 3 3 7
15 13 13 10 13 18 20 22 22 16 17 18 17 14 13 8 6 10 7 8 10 13 16 15 8 9 8 11 11 9 11 14 10 10 12 12 12 10 10 10 10 11 10 10 9 9 12 10 10 9 9 8 6 6 5 5 5 5 6 6 7 9 10 9 8 8 9 8 7 7 6 7 7 6 7 7 6 5 4 4 5 5 5 3 2 2
11 16 16 12 14 16 15 17 12 12 14 14 8 7 9 10 7 8 8 8 10 12 12 14 15 12 9 10 10 10 12 14 12 9 12 12 11 10 7 7 7 8 7 6 6 7 6 6 8 9 8 7 6 6 6 6 4 4 4 5 6 8 10 10 9 9 8 7 7 7 7 7 7 6 6 7 7 7 7 9 9 6 5 4 6 10
13 19 12 12 12 17 18 16 13 13 16 20 19 16 13 7 4 7 11 12 12 11 12 14 17 17 15 11 8 10 13 14 13 9 9 10 10 8 9 10 10 7 8 8 9 7 8 7 8 8 8 7 7 7 6 6 4 4 2 3 5 7 8 9 9 7 7 7 7 7 7 7 7 7 6 6 7 6 7 6 8 11 11 8 6 8
Wind_Direction
154 184 196 205 213 206 211 216 215 218 220 207 213 211 218 226 240 236 230 224 189 213 213 214 222 221 215 212 227 244 246 255 223 209 210 209 213 217 216 213 213 214 214 202 200 186 177 178 175 175 169 167 168 169 172 176 176 175 179 172 180 184 179 176 176 175 179 186 187 195 202 208 205 207 208 214 216 214 212 206 205 203 198 191 191 192
190 191 206 207 221 219 214 223 230 228 235 232 223 224 222 216 227 222 229 199 179 196 218 215 222 223 225 215 210 215 234 239 233 211 215 216 218 221 222 217 212 215 210 204 177 142 139 130 155 158 161 162 166 187 176 179 184 179 177 183 181 176 186 186 185 181 184 187 191 190 199 197 199 199 201 209 210 212 210 209 214 210 206 198 192 193
201 200 199 206 212 225 223 216 230 232 226 233 231 222 230 224 227 227 223 226 189 198 224 197 218 227 226 228 226 224 212 226 228 223 218 215 218 222 222 221 219 212 209 187 172 156 147 143 150 156 165 175 177 181 183 185 178 182 186 187 182 181 185 192 187 182 191 191 193 193 195 192 199 205 202 203 205 203 207 209 210 212 212 210 204 188
201 215 206 199 203 215 232 223 217 229 240 234 224 235 230 207 204 205 221 222 170 176 183 225 237 233 228 224 228 232 234 216 223 228 223 214 218 221 223 219 220 222 208 193 187 178 166 179 187 172 179 189 189 179 180 184 186 186 190 191 185 185 185 190 194 193 194 192 190 189 180 186 188 191 193 196 202 206 206 214 210 212 210 210 210 196
248 195 208 208 206 209 218 228 224 215 228 233 233 233 235 224 220 241 174 210 203 203 181 73 288 255 229 240 227 219 230 240 216 224 234 231 221 213 213 221 216 217 213 204 198 194 180 186 196 196 196 189 188 191 192 190 189 192 192 191 186 186 186 190 194 194 183 175 182 180 178 168 189 188 185 192 210 207 209 213 210 214 208 208 208 206
252 268 312 214 218 213 213 217 225 224 227 228 233 237 243 234 230 211 253 272 216 234 185 161 248 247 211 227 233 238 225 225 223 225 223 225 231 229 213 210 212 215 209 204 208 203 197 196 198 195 194 189 191 194 200 198 193 188 189 188 187 187 188 191 192 188 181 181 179 171 177 185 188 198 193 201 205 199 204 210 210 209 206 208 210 207
236 234 237 249 221 216 215 218 215 221 236 226 216 217 241 260 261 246 235 212 232 217 194 176 222 258 171 217 219 222 241 251 235 222 224 218 220 221 225 211 205 206 215 218 212 210 207 208 213 210 194 197 195 201 196 197 195 191 188 187 186 188 190 191 187 182 183 185 185 186 189 191 191 196 211 214 207 200 209 205 205 208 203 205 206 209
193 205 221 244 263 233 212 219 211 212 225 239 219 203 209 232 250 252 239 236 259 209 272 228 205 252 254 221 209 211 221 230 239 239 227 223 220 219 218 214 207 205 210 212 215 214 210 208 208 214 211 199 199 198 193 190 187 191 193 186 187 189 190 189 185 180 183 188 189 190 191 192 196 203 214 212 210 204 196 201 205 201 203 202 203 206
194 205 213 222 237 230 239 217 204 209 221 226 222 258 224 209 226 238 246 261 256 301 229 237 190 249 245 222 226 210 219 224 227 228 230 227 224 224 219 214 214 210 211 210 215 219 218 216 214 211 210 207 199 193 193 189 186 190 194 191 188 190 190 190 185 181 186 189 191 192 190 194 206 208 219 215 201 199 200 204 201 199 200 199 202 204
183 243 226 218 214 236 239 251 215 202 225 215 329 18 321 267 224 226 245 245 264 241 238 219 192 241 259 203 213 219 239 232 219 221 227 225 222 221 219 217 217 216 215 217 218 218 223 223 223 219 215 212 208 207 204 195 186 188 188 190 188 192 189 187 185 182 185 190 188 192 196 201 207 212 221 210 199 196 194 206 203 201 199 198 199 204
297 335 46 51 223 248 255 256 243 216 223 194 150 160 259 43 39 13 262 251 234 241 233 219 220 223 265 218 214 211 213 226 233 232 218 221 221 217 212 212 215 218 216 216 219 220 223 222 219 216 220 223 223 217 211 203 193 189 189 186 185 189 183 181 182 184 187 189 190 195 198 204 209 212 213 210 210 205 198 202 205 201 202 198 200 200
251 278 264 206 173 312 360 318 283 283 222 201 125 185 216 208 60 28 300 58 215 235 222 213 215 222 244 243 207 223 217 208 213 224 228 226 216 213 208 206 210 214 217 212 209 216 224 230 229 218 222 222 223 217 215 213 194 184 182 174 178 185 185 185 184 187 191 190 195 199 201 208 213 211 207 208 211 207 210 205 203 202 197 201 200 196
243 232 232 240 153 171 137 360 280 286 318 227 165 197 192 201 153 222 193 226 219 234 204 212 209 236 238 248 152 219 209 226 221 214 217 222 225 215 202 202 206 209 207 199 199 207 214 220 226 226 225 219 219 215 210 205 191 175 167 168 174 192 191 193 189 187 191 192 197 201 207 214 213 210 208 209 211 205 207 211 215 206 207 203 203 203
260 223 208 224 218 157 157 173 201 258 207 231 206 176 184 198 201 224 211 237 254 232 222 221 193 240 262 266 224 248 239 236 205 238 237 212 214 211 203 198 188 186 184 190 191 198 207 213 218 220 219 214 215 214 205 188 177 177 180 184 186 199 195 194 191 192 193 199 202 204 207 211 207 210 208 211 209 208 205 200 208 210 208 207 208 208
258 252 223 173 232 147 183 191 205 236 198 213 218 195 196 190 196 211 205 212 221 234 215 194 190 209 194 220 141 216 229 242 263 262 288 301 172 189 191 176 168 168 178 180 185 195 205 211 207 209 211 210 208 207 205 196 184 171 184 187 192 198 203 195 196 195 199 204 206 206 204 203 202 207 206 209 205 205 207 208 208 210 210 209 216 213
237 268 245 186 188 168 185 196 195 204 291 247 233 226 206 211 177 231 190 210 226 240 246 182 216 114 239 281 232 201 191 207 224 234 217 237 254 187 165 173 171 173 185 187 198 218 224 221 214 206 206 206 203 205 204 199 187 181 184 186 191 195 201 200 198 199 200 204 201 199 195 198 197 197 200 206 205 211 203 207 206 217 221 222 220 224
213 243 155 226 217 188 184 184 186 166 229 160 227 225 217 208 218 237 261 193 228 222 231 179 232 241 277 272 252 274 247 212 214 218 205 202 200 183 191 188 185 183 186 199 213 219 223 223 215 202 198 200 198 196 194 192 185 183 184 185 195 205 207 204 200 198 196 193 189 195 194 191 191 192 197 199 202 204 206 203 210 214 223 228 228 233
291 291 279 151 223 221 197 190 187 190 172 122 220 216 242 251 41 231 228 197 228 230 227 193 222 234 215 264 180 232 244 250 257 204 210 207 191 195 196 190 186 190 199 208 214 216 216 209 208 206 202 196 194 192 192 191 186 183 182 187 197 206 208 207 197 193 185 182 185 187 188 188 186 190 196 195 205 211 215 230 227 224 228 230 231 228
196 268 261 231 233 247 308 232 217 206 189 205 185 185 204 209 234 172 262 227 212 225 239 228 229 240 222 235 142 193 218 225 233 230 212 214 198 195 195 198 196 202 211 216 218 219 220 216 209 201 201 200 194 189 187 185 181 183 192 198 196 203 205 200 189 174 172 168 172 173 178 178 180 179 184 197 204 207 213 227 230 229 230 239 239 236
76 241 282 191 194 173 152 82 231 208 250 11 343 224 90 16 247 201 204 258 223 241 221 240 211 245 224 240 227 222 225 216 223 221 220 214 201 195 195 198 198 210 219 221 224 223 221 220 208 194 189 188 186 183 183 182 184 192 198 196 199 195 187 176 175 170 166 162 154 155 153 167 174 187 194 203 203 215 219 227 227 232 244 241 241 241
265 166 262 270 4 75 237 163 208 236 212 210 271 227 185 195 262 350 246 214 211 224 231 244 240 221 233 220 243 231 237 227 205 218 215 212 199 196 198 195 199 212 219 219 224 228 226 226 222 210 196 188 186 183 181 185 191 195 187 184 180 180 178 157 155 142 149 143 146 150 167 181 185 196 198 201 205 212 225 230 227 230 231 241 247 241
250 198 244 255 227 219 252 177 213 219 225 233 211 207 202 194 211 216 234 282 243 221 224 224 247 253 236 179 224 231 239 234 212 210 203 207 202 197 192 187 197 215 217 219 222 225 230 234 231 202 170 151 153 166 172 182 174 178 184 183 174 171 180 168 172 165 162 159 161 166 180 187 186 189 187 195 210 213 224 227 226 226 241 239 248 240
169 295 264 251 236 248 229 233 153 152 114 204 280 247 220 225 216 219 230 205 212 238 261 249 276 238 206 325 323 270 222 242 219 211 216 202 198 190 178 186 202 203 209 217 218 218 213 193 183 176 168 170 174 178 176 173 175 184 184 175 172 168 182 172 177 169 161 161 166 177 177 175 179 176 190 199 220 227 233 240 240 242 244 253 262 262
117 246 261 268 274 265 275 277 106 134 105 256 172 220 282 235 222 228 231 227 235 207 215 235 241 251 229 271 308 352 101 72 20 212 198 166 170 179 180 185 193 202 207 195 191 195 198 194 184 167 175 180 184 184 186 185 186 186 181 173 163 170 181 177 163 158 157 163 171 171 160 165 174 173 192 198 215 220 233 233 240 244 252 257 262 264
349 245 24 323 310 276 259 237 251 32 43 248 240 217 222 246 271 274 288 283 259 217 246 227 242 221 238 282 301 315 353 26 19 11 38 145 172 169 164 179 188 200 191 186 190 195 192 190 193 197 190 186 184 184 178 178 182 177 173 163 166 177 173 163 158 153 163 162 163 160 159 174 173 180 195 206 210 218 220 224 229 240 240 251 259 259
199 281 67 297 286 282 255 218 221 242 261 263 231 230 218 210 231 254 241 233 253 179 219 231 259 272 293 238 238 241 268 300 17 42 342 43 129 136 136 165 188 196 195 201 207 194 205 211 225 238 218 196 187 182 179 176 172 168 163 169 168 165 162 166 157 158 158 159 159 168 168 181 186 192 201 203 206 210 213 216 222 234 254 247 261 275
243 224 156 222 238 253 268 290 298 301 304 298 298 285 253 225 218 222 238 242 241 243 247 234 240 265 265 264 272 280 245 238 238 213 242 289 291 278 178 163 180 190 198 205 204 204 193 228 219 214 199 192 192 188 180 168 165 159 158 165 167 162 160 164 154 158 157 162 165 172 184 189 196 198 200 198 198 191 182 218 248 258 256 260 256 267
211 261 224 222 233 243 258 261 267 289 290 290 292 289 290 274 243 223 217 239 238 256 248 233 230 230 247 258 264 273 260 243 224 213 208 212 235 237 242 222 207 196 202 189 181 186 203 209 208 204 200 194 200 197 188 182 171 167 164 168 172 165 156 159 151 158 161 162 179 187 204 206 202 202 202 180 150 155 208 226 240 239 250 265 280 276
200 252 259 217 248 243 242 250 257 267 274 277 276 278 285 282 275 257 248 245 235 238 259 264 257 254 252 257 270 266 278 286 274 246 248 227 213 217 222 223 205 192 189 197 204 206 203 204 203 202 201 205 200 193 192 181 175 165 169 165 168 164 172 162 151 163 170 175 187 207 209 209 208 187 159 151 181 205 218 221 221 221 269 314 295 304
124 240 255 228 258 259 253 252 253 254 255 256 260 266 263 259 261 260 263 265 260 260 255 255 255 252 252 268 269 273 277 289 304 314 303 278 256 226 223 209 195 193 192 198 204 206 207 207 205 203 201 201 196 194 187 184 185 186 180 187 180 171 183 150 166 167 179 187 205 211 206 199 183 165 165 196 224 238 246 244 237 241 290 293 304 320
171 255 232 205 228 255 248 247 249 246 250 256 257 259 260 263 263 255 257 261 264 261 266 268 266 262 245 245 254 256 261 272 277 275 277 281 288 272 236 217 204 197 197 200 201 206 206 208 208 209 205 206 202 198 190 192 194 194 194 189 187 187 184 157 166 173 179 199 204 200 194 177 180 174 192 206 202 220 221 226 229 220 230 262 274 316
180 262 299 305 275 269 262 253 249 245 242 247 256 254 256 259 264 255 245 232 239 250 254 252 252 260 266 249 250 254 249 245 249 255 261 266 272 279 283 232 217 211 212 212 210 204 202 204 207 203 204 208 207 201 194 195 197 189 199 190 187 188 170 164 171 177 188 192 194 196 191 190 189 190 204 189 205 204 207 195 182 197 214 215 216 213
189 262 270 196 245 261 265 253 261 262 271 261 249 246 243 241 240 249 249 242 239 236 246 245 246 250 257 257 253 252 250 247 243 241 249 252 254 254 249 246 224 217 220 221 206 203 205 207 206 204 208 210 205 201 202 191 184 194 194 188 195 166 166 172 175 176 183 193 190 199 194 190 190 196 198 206 205 195 164 169 191 209 209 201 154 91
218 225 251 238 252 268 274 270 278 287 251 243 244 232 222 234 236 238 243 239 240 226 239 235 244 246 255 261 253 251 253 253 251 246 240 243 248 247 245 242 237 228 230 228 216 211 214 212 209 209 209 208 203 199 191 181 185 199 194 183 165 165 177 171 178 176 189 191 194 193 190 186 183 198 211 214 199 171 180 181 213 204 130 108 99 159
245 233 241 230 255 258 269 292 288 240 251 249 247 252 257 257 246 242 247 246 245 242 242 248 248 243 244 247 253 251 249 253 249 246 240 234 238 244 248 246 240 229 222 219 217 215 213 212 214 215 215 202 190 178 172 192 199 187 162 161 168 175 171 178 173 185 189 191 194 181 179 176 179 190 208 197 177 178 192 206 184 86 67 66 49 11
241 235 240 242 243 264 265 248 252 247 251 249 256 249 242 243 244 247 251 246 242 237 235 238 240 240 239 243 249 253 258 261 264 253 245 240 236 241 243 243 237 224 225 222 217 216 217 219 217 212 212 183 164 177 184 198 188 170 182 172 169 172 173 171 176 189 183 186 186 179 178 173 175 176 180 180 182 178 198 167 127 105 90 96 225 232
233 240 230 253 213 244 238 243 252 292 290 272 276 260 241 239 228 219 245 245 237 238 239 243 247 249 247 244 247 250 252 256 260 261 246 238 238 235 238 241 234 230 230 233 227 224 222 220 217 213 209 201 194 183 202 193 172 168 160 164 170 162 168 162 181 193 188 185 183 179 174 163 160 168 173 176 170 181 162 133 121 126 128 176 196 251
218 222 217 230 228 217 243 259 266 263 258 261 231 242 244 243 246 248 254 263 257 257 243 239 239 241 244 244 243 244 246 248 251 257 255 245 233 236 238 241 242 242 235 229 224 220 215 216 213 212 202 211 221 220 183 165 163 159 164 172 167 159 173 175 196 194 187 189 181 168 159 155 155 165 175 170 176 162 140 126 127 131 137 148 167 117
222 224 227 222 245 243 238 243 241 250 251 246 258 242 245 245 242 250 252 257 250 257 250 245 245 241 238 241 244 244 244 244 245 248 255 257 249 243 250 248 242 238 231 222 215 213 210 207 205 209 207 205 218 209 160 160 157 159 171 173 172 171 177 192 194 189 186 181 162 150 147 153 153 163 166 171 162 145 144 142 143 125 150 176 138 130
221 221 223 230 233 232 244 242 240 225 249 236 247 259 252 250 256 293 262 256 242 244 246 245 244 244 247 246 246 247 244 250 251 255 255 256 246 211 218 231 234 232 230 223 212 199 200 207 205 217 213 209 207 164 153 150 155 162 168 175 167 176 192 194 189 179 158 144 139 137 144 144 152 164 160 160 145 138 137 131 143 168 165 172 164 172
206 217 213 233 231 236 235 245 255 260 249 250 249 250 256 253 252 239 242 259 249 247 249 250 253 253 256 261 259 259 245 242 247 254 261 263 250 226 221 217 222 213 212 207 211 208 209 208 200 206 208 199 166 155 153 151 153 171 173 168 173 193 195 178 156 147 146 140 138 145 152 154 159 162 165 157 154 145 142 155 162 163 169 170 179 157
214 198 220 217 231 234 232 237 244 255 250 252 248 246 249 265 233 240 244 247 261 274 279 252 248 243 240 242 246 247 255 256 255 256 260 261 254 227 221 220 219 214 204 202 209 209 208 204 194 181 146 149 156 158 159 158 166 173 171 170 190 192 164 148 147 144 146 147 146 148 150 148 151 150 159 154 144 145 151 160 168 174 176 161 142 131
275 234 206 212 223 236 232 240 242 252 231 223 239 261 258 240 244 241 250 254 245 255 265 266 253 256 254 260 252 253 256 261 261 255 253 255 258 238 219 214 209 208 212 212 223 216 183 183 183 185 174 162 157 159 161 157 164 172 171 184 188 160 148 146 145 149 148 143 142 144 145 147 152 157 157 159 153 146 152 165 166 166 142 136 131 128
267 262 251 242 199 228 224 222 228 236 275 276 213 229 230 225 236 252 249 264 261 254 256 264 254 249 251 247 256 257 255 257 263 263 261 263 262 258 220 221 215 210 205 206 199 190 177 187 184 169 157 157 158 162 165 163 167 172 176 186 160 146 143 145 151 146 140 140 140 139 142 148 150 149 144 142 135 137 141 144 144 135 139 143 136 134
165 235 270 281 297 257 260 267 296 318 309 295 270 251 255 264 259 252 245 248 259 259 242 258 272 278 267 263 261 262 266 259 257 260 260 263 264 257 223 212 203 201 200 200 211 195 185 182 179 164 154 159 158 162 167 171 163 167 174 173 150 149 151 149 143 137 138 140 142 140 143 133 134 136 133 136 134 133 137 136 130 124 134 127 122 117
308 299 286 261 267 260 256 252 264 272 272 275 282 284 281 294 300 295 282 286 277 280 270 260 270 282 299 306 313 290 275 279 291 294 288 280 278 272 235 216 213 208 202 196 182 175 184 160 145 148 150 147 152 155 166 168 165 167 173 152 147 149 145 141 137 138 141 141 139 141 136 129 127 124 122 116 112 119 126 133 130 125 116 106 111 121
263 276 291 272 291 292 265 262 247 270 293 308 306 306 303 290 282 290 293 286 273 272 284 283 262 265 269 281 281 272 278 281 282 278 276 279 280 273 238 209 206 194 186 191 195 163 151 154 156 161 159 157 156 145 139 134 138 139 139 147 149 143 139 136 140 139 141 142 141 141 142 139 139 132 123 110 99 90 91 96 107 109 105 120 130 126
279 8 323 300 299 281 284 292 287 285 285 281 281 287 286 286 293 326 313 307 305 300 294 292 296 291 275 278 268 267 272 272 273 277 280 277 275 267 238 211 200 194 204 187 165 166 164 166 167 163 159 157 156 142 129 121 126 134 133 135 138 139 137 141 146 147 147 146 146 149 149 143 140 132 122 114 111 105 95 79 93 100 99 107 131 135
290 310 262 277 281 285 285 282 283 292 277 268 266 259 263 275 291 292 294 294 298 300 300 298 280 254 264 262 271 270 271 271 262 264 269 271 269 258 232 209 196 186 166 157 169 165 170 166 159 161 155 150 146 140 128 123 119 124 131 140 144 145 144 145 141 139 142 144 140 141 141 137 135 131 125 113 94 76 76 110 108 107 97 48 38 94
278 261 271 285 282 272 267 277 302 306 295 288 274 280 286 278 263 272 286 292 293 294 295 297 298 288 259 253 257 254 257 266 265 261 265 265 261 244 211 192 177 162 162 160 148 148 141 147 148 148 146 143 141 139 135 126 120 111 125 144 150 150 145 143 139 139 144 144 141 142 135 133 133 134 129 126 123 111 80 58 77 100 102 88 60 67
247 260 264 262 260 271 273 272 281 283 288 285 291 294 287 277 255 266 271 275 277 272 278 286 289 293 290 277 247 244 253 256 261 258 262 266 255 224 196 177 168 165 158 155 146 147 147 148 146 139 138 144 138 137 134 128 125 122 114 155 160 150 145 141 141 141 142 142 148 148 143 140 138 141 133 132 128 119 114 105 69 81 90 90 79 83